GW4824 Weather Reports


time (UTC)temp
F
wind
direction
speed
knots
gust
knots
rain 1hr
in
rain 24hr
in
rain mn
in
humidity
%
barometer
mb
20260510203455 66 261 0.9 0.9 0.00 0.02 0.02 43 1016.9
20260510202954 66 73 1.7 1.7 0.00 0.02 0.02 41 1016.9
20260510202450 66 49 0.9 0.9 0.00 0.02 0.02 40 1017.0
20260510201947 66 15 1.7 2.6 0.00 0.02 0.02 38 1016.9
20260510201445 66 101 0.0 0.9 0.00 0.02 0.02 38 1017.1
20260510200941 66 147 0.9 0.9 0.00 0.02 0.02 38 1017.0
20260510200436 66 70 0.9 0.9 0.00 0.02 0.02 39 1017.1
20260510195929 66 132 0.9 0.9 0.00 0.02 0.02 40 1017.1
20260510195427 66 93 0.0 0.0 0.00 0.02 0.02 38 1017.0
20260510194922 66 97 0.0 0.0 0.00 0.02 0.02 39 1017.1
20260510194418 66 119 0.0 0.9 0.00 0.02 0.02 41 1017.0
20260510193914 66 87 0.9 0.9 0.00 0.02 0.02 39 1017.2
20260510193409 66 112 0.9 0.9 0.00 0.02 0.02 47 1017.1
20260510192905 66 40 0.9 1.7 0.00 0.02 0.02 39 1017.2
20260510192400 66 93 1.7 2.6 0.00 0.02 0.02 42 1017.1
20260510191856 66 118 0.9 0.9 0.00 0.02 0.02 39 1017.2
20260510191352 66 93 1.7 1.7 0.00 0.02 0.02 37 1017.0
20260510190850 66 348 0.9 1.7 0.00 0.02 0.02 38 1017.0
20260510190347 66 20 0.9 0.9 0.00 0.02 0.02 36 1017.2
20260510185844 65 126 0.9 0.9 0.00 0.02 0.02 44 1017.0
20260510185342 66 94 0.9 0.9 0.00 0.02 0.02 38 1017.1
20260510184839 65 154 1.7 1.7 0.00 0.02 0.02 40 1017.0
20260510184336 65 65 0.0 0.0 0.00 0.02 0.02 44 1017.2
20260510183835 64 93 0.0 0.0 0.00 0.02 0.02 43 1017.0
20260510183331 64 193 2.6 2.6 0.00 0.02 0.02 45 1016.9
20260510182827 64 222 1.7 1.7 0.00 0.02 0.02 39 1016.9
20260510182324 65 96 1.7 1.7 0.00 0.02 0.02 45 1017.0
20260510181819 64 116 0.9 0.9 0.00 0.02 0.02 47 1017.1
20260510181317 64 139 2.6 2.6 0.00 0.02 0.02 49 1017.1
20260510180813 64 149 0.9 1.7 0.00 0.02 0.02 49 1016.9
20260510180311 64 85 0.9 0.9 0.00 0.02 0.02 47 1016.6
20260510175807 63 133 0.9 0.9 0.00 0.02 0.02 47 1016.6
20260510175306 63 106 0.9 0.9 0.00 0.02 0.02 50 1016.4
20260510174800 64 167 0.9 0.9 0.00 0.02 0.02 48 1016.7
20260510174257 63 137 0.0 0.9 0.00 0.02 0.02 48 1016.5
20260510173753 64 117 2.6 3.5 0.00 0.02 0.02 45 1016.8
20260510173249 64 99 0.9 1.7 0.00 0.02 0.02 49 1016.6
20260510172745 64 56 0.9 1.7 0.00 0.02 0.02 55 1016.7
20260510172241 63 150 1.7 1.7 0.00 0.02 0.02 54 1016.6
20260510171738 63 138 0.9 1.7 0.00 0.02 0.02 52 1016.7
20260510171235 63 125 0.0 0.9 0.00 0.02 0.02 46 1016.9
20260510170732 62 88 0.0 0.9 0.00 0.02 0.02 51 1017.0
20260510170228 61 69 0.9 0.9 0.00 0.02 0.02 63 1017.0
20260510165724 62 75 0.0 0.9 0.00 0.02 0.02 54 1017.0
20260510165220 62 133 1.7 1.7 0.00 0.02 0.02 54 1017.0
20260510164718 62 86 1.7 1.7 0.00 0.02 0.02 53 1017.0
20260510164215 62 235 1.7 1.7 0.00 0.02 0.02 52 1017.0
20260510163710 63 45 0.9 1.7 0.00 0.02 0.02 55 1016.8
20260510163206 62 249 0.9 1.7 0.00 0.02 0.02 57 1016.8
20260510162706 61 123 0.0 0.9 0.00 0.02 0.02 54 1016.8
20260510162203 62 153 0.9 1.7 0.00 0.02 0.02 55 1016.7
20260510161659 63 315 0.9 0.9 0.00 0.02 0.02 57 1016.8
20260510161155 62 111 0.0 0.0 0.00 0.02 0.02 61 1016.7
20260510160652 62 164 0.9 1.7 0.00 0.02 0.02 58 1016.7
20260510160148 62 106 0.0 0.0 0.00 0.02 0.02 59 1016.8
20260510155643 62 142 1.7 2.6 0.00 0.02 0.02 57 1016.6
20260510155139 61 135 0.9 1.7 0.00 0.02 0.02 60 1016.3
20260510154635 61 143 0.9 1.7 0.00 0.02 0.02 60 1016.5
20260510154131 61 100 0.9 0.9 0.00 0.02 0.02 62 1016.4
20260510153626 60 111 0.0 0.0 0.00 0.02 0.02 58 1016.3
20260510153123 60 75 0.9 0.9 0.00 0.02 0.02 59 1016.3
20260510152620 61 148 0.0 1.7 0.00 0.02 0.02 57 1016.4
20260510152116 61 112 0.9 0.9 0.00 0.02 0.02 56 1016.4
20260510151613 61 104 0.9 0.9 0.00 0.02 0.02 60 1016.1
20260510151112 60 99 0.0 0.0 0.00 0.02 0.02 64 1016.0
20260510150611 59 116 0.9 0.9 0.00 0.02 0.02 59 1016.0
20260510150108 59 121 1.7 2.6 0.00 0.02 0.02 63 1016.1
20260510145604 59 88 0.9 0.9 0.00 0.02 0.02 62 1016.0
20260510145101 60 79 0.0 0.0 0.00 0.02 0.02 61 1016.0
20260510144557 60 108 0.0 0.9 0.00 0.02 0.02 63 1015.7
20260510144053 59 120 0.9 1.7 0.00 0.02 0.02 56 1015.7
20260510143548 60 308 0.9 0.9 0.00 0.02 0.02 59 1015.5
20260510143045 59 113 0.0 0.9 0.00 0.02 0.02 65 1015.4
20260510142542 59 87 0.0 0.0 0.00 0.02 0.02 65 1015.4
20260510142039 58 94 0.0 0.9 0.00 0.02 0.02 65 1015.2
20260510141535 59 15 0.9 1.7 0.00 0.02 0.02 65 1015.2
20260510141033 58 112 0.0 0.9 0.00 0.02 0.02 67 1015.2
20260510140529 58 359 0.9 0.9 0.00 0.02 0.02 70 1015.1
20260510140029 57 109 0.0 0.0 0.00 0.02 0.02 70 1015.0
20260510135524 56 101 0.9 0.9 0.00 0.02 0.02 69 1015.0
20260510135021 55 110 0.0 0.9 0.00 0.02 0.02 74 1015.1
20260510134518 54 108 0.0 0.9 0.00 0.02 0.02 77 1015.0
20260510134015 52 95 0.0 0.0 0.00 0.02 0.02 79 1014.9
20260510133511 52 106 0.0 0.0 0.00 0.02 0.02 82 1015.1
20260510133007 51 104 0.0 0.0 0.00 0.02 0.02 83 1014.9
20260510132504 51 107 0.0 0.0 0.00 0.02 0.02 84 1014.8
20260510132001 50 96 0.0 0.0 0.00 0.02 0.02 85 1014.9
20260510131459 50 124 0.0 0.0 0.00 0.02 0.02 83 1014.6
20260510130955 50 101 0.0 0.0 0.00 0.02 0.02 84 1014.8
20260510130452 50 101 0.0 0.0 0.00 0.02 0.02 84 1014.8
20260510125949 50 100 0.0 0.0 0.00 0.02 0.02 85 1014.8
20260510125445 50 101 0.0 0.0 0.00 0.02 0.02 85 1014.8
20260510124942 50 106 0.0 0.0 0.00 0.02 0.02 85 1014.6
20260510124438 50 94 0.0 0.0 0.00 0.02 0.02 84 1014.7
20260510123935 50 102 0.0 0.0 0.00 0.02 0.02 86 1014.5
20260510123431 50 101 0.0 0.0 0.00 0.02 0.02 86 1014.5
20260510122927 49 94 0.0 0.0 0.00 0.02 0.02 87 1014.2
20260510122427 49 104 0.0 0.0 0.00 0.02 0.02 89 1014.1
20260510121924 49 105 0.0 0.0 0.00 0.02 0.02 90 1014.1
20260510121422 49 102 0.0 0.0 0.00 0.02 0.02 91 1014.3
20260510120919 49 101 0.0 0.0 0.00 0.02 0.02 92 1014.0
20260510120416 48 97 0.0 0.0 0.00 0.02 0.02 91 1014.0
20260510115912 48 96 0.0 0.0 0.00 0.02 0.02 91 1014.0
20260510115409 48 100 0.0 0.0 0.00 0.02 0.02 93 1013.5
20260510114905 48 102 0.0 0.0 0.00 0.02 0.02 93 1013.7
20260510114402 48 102 0.0 0.0 0.00 0.02 0.02 93 1013.7
20260510113857 48 102 0.0 0.0 0.00 0.02 0.02 93 1013.8
20260510113353 48 110 0.0 0.0 0.00 0.02 0.02 92 1013.5
20260510112850 48 103 0.0 0.0 0.00 0.02 0.02 90 1013.1
20260510112347 48 110 0.0 0.0 0.00 0.02 0.02 91 1012.8
20260510111843 48 110 0.0 0.0 0.00 0.02 0.02 90 1012.8
20260510111340 48 103 0.0 0.0 0.00 0.02 0.02 88 1012.8
20260510110839 48 103 0.0 0.0 0.00 0.02 0.02 87 1012.9
20260510110337 48 103 0.0 0.0 0.07 0.02 0.02 85 1013.0
20260510105833 49 96 0.0 0.0 0.07 0.02 0.02 83 1012.9
20260510105333 49 97 0.0 0.0 0.00 0.01 0.01 81 1012.5
20260510104829 49 112 0.0 0.0 0.00 0.01 0.01 78 1012.5
20260510104327 50 107 0.0 0.0 0.00 0.01 0.01 81 1012.6
20260510103823 49 97 0.0 0.0 0.00 0.01 0.01 76 1012.4
20260510103320 49 105 0.0 0.0 0.00 0.01 0.01 80 1012.1
20260510102815 49 96 0.0 0.0 0.00 0.01 0.01 82 1012.3
20260510102311 49 115 0.0 0.0 0.00 0.01 0.01 81 1011.9
20260510101808 49 90 0.0 0.0 0.00 0.01 0.01 78 1011.8
20260510101307 49 61 0.0 0.9 0.00 0.01 0.01 77 1011.7
20260510100802 49 90 0.0 0.0 0.00 0.01 0.01 78 1011.5
20260510100300 49 53 0.9 0.9 0.00 0.01 0.01 76 1011.2
20260510095755 49 88 0.0 0.0 0.00 0.01 0.01 78 1011.4
20260510095251 49 118 0.0 0.0 0.00 0.01 0.01 78 1011.4
20260510094750 50 105 0.0 0.0 0.00 0.01 0.01 80 1011.4
20260510094246 50 23 0.9 1.7 0.00 0.01 0.01 79 1011.2
20260510093742 50 106 0.0 0.0 0.00 0.01 0.01 79 1011.2
20260510093239 50 90 0.0 0.0 0.00 0.01 0.01 81 1011.1
20260510092735 50 85 0.0 0.0 0.00 0.01 0.01 81 1011.0
20260510092231 50 68 0.0 0.9 0.00 0.01 0.01 81 1011.1
20260510091727 50 97 0.0 0.0 0.00 0.01 0.01 83 1010.8
20260510091224 50 95 0.0 0.0 0.00 0.01 0.01 83 1010.7
20260510090720 50 109 0.0 0.0 0.00 0.01 0.01 82 1010.9
20260510090218 51 101 0.0 0.0 0.00 0.01 0.01 85 1010.6
20260510085712 51 98 0.0 0.0 0.00 0.01 0.01 86 1010.2
20260510085208 51 94 0.0 0.0 0.00 0.01 0.01 88 1010.4
20260510084704 51 91 0.0 0.0 0.00 0.01 0.01 91 1010.4
20260510084201 51 80 0.0 0.9 0.00 0.01 0.01 91 1010.4
20260510083658 52 93 0.0 0.0 0.00 0.01 0.01 92 1010.3
20260510083155 52 100 0.0 0.9 0.00 0.01 0.01 91 1010.3
20260510082650 52 83 0.0 0.0 0.00 0.01 0.01 91 1010.3
20260510082146 52 66 0.0 0.9 0.00 0.01 0.01 90 1010.2
20260510081641 53 89 0.0 0.9 0.00 0.01 0.01 90 1010.0
20260510081137 53 92 0.0 0.0 0.00 0.01 0.01 90 1010.0
20260510080636 53 78 0.0 0.0 0.00 0.01 0.01 90 1009.9
20260510080134 53 97 0.0 0.0 0.00 0.01 0.01 89 1009.9
20260510075631 54 88 0.9 0.9 0.00 0.01 0.01 90 1009.7
20260510075128 54 94 0.0 0.0 0.00 0.01 0.01 90 1009.5
20260510074625 54 94 0.0 0.9 0.00 0.01 0.01 90 1009.9
20260510074120 54 41 0.0 0.9 0.00 0.01 0.01 91 1009.7
20260510073616 55 110 0.0 0.9 0.00 0.01 0.01 91 1009.6
20260510073114 55 113 0.0 0.0 0.00 0.01 0.01 91 1009.5
20260510072610 55 92 0.0 0.0 0.00 0.01 0.01 90 1009.5
20260510072107 55 97 0.0 0.0 0.00 0.01 0.01 90 1009.5
20260510071602 56 100 0.0 0.0 0.00 0.01 0.01 89 1009.4
20260510071101 56 96 0.0 0.0 0.00 0.01 0.01 88 1009.4
20260510070557 56 106 0.0 0.0 0.00 0.01 0.01 88 1009.4
20260510070054 56 98 0.0 0.0 0.00 0.01 0.01 88 1009.6
20260510065550 56 88 0.0 0.0 0.00 0.01 0.01 89 1009.4
20260510065046 56 109 0.0 0.0 0.00 0.01 0.01 90 1009.6
20260510064543 56 85 0.0 0.9 0.00 0.01 0.01 91 1009.4
20260510064040 55 74 0.0 0.9 0.00 0.01 0.01 92 1009.5
20260510063537 55 111 0.0 0.0 0.00 0.01 0.01 93 1009.2
20260510063034 55 120 0.0 0.0 0.00 0.01 0.01 93 1009.4
20260510062530 55 105 0.0 0.9 0.00 0.01 0.01 94 1009.2
20260510062025 55 128 0.9 0.9 0.00 0.01 0.01 95 1009.2
20260510061522 54 93 0.0 0.0 0.00 0.01 0.01 95 1009.2
20260510061018 54 89 0.0 0.0 0.00 0.01 0.01 95 1009.0
20260510060515 54 106 0.0 0.0 0.00 0.01 0.01 95 1009.1
20260510060011 54 96 0.0 0.0 0.00 0.01 0.01 95 1009.1
20260510055507 54 93 0.0 0.0 0.00 0.01 0.01 95 1009.0
20260510055005 54 103 0.0 0.0 0.00 0.01 0.01 95 1009.1
20260510054501 54 104 0.0 0.0 0.00 0.01 0.01 95 1009.0
20260510053956 53 93 0.0 0.0 0.00 0.01 0.01 96 1009.1
20260510053451 53 113 0.0 0.0 0.00 0.01 0.01 96 1008.9
20260510052947 53 102 0.0 0.0 0.00 0.01 0.01 96 1009.1
20260510052443 53 102 0.0 0.0 0.00 0.01 0.01 96 1008.8
20260510051940 53 106 0.0 0.0 0.00 0.01 0.01 95 1008.9
20260510051436 53 106 0.0 0.0 0.00 0.01 0.01 95 1009.0
20260510050933 53 106 0.0 0.0 0.00 0.01 0.01 95 1008.9
20260510050429 54 106 0.0 0.0 0.00 0.01 0.01 95 1008.9
20260510045927 54 110 0.0 0.0 0.00 0.01 0.01 94 1008.9
20260510045424 54 114 0.0 0.0 0.00 0.01 0.01 94 1009.1
20260510044920 55 117 0.0 0.0 0.00 0.01 0.01 93 1008.9
20260510044418 55 107 0.0 0.0 0.00 0.01 0.01 92 1008.8
20260510043914 56 93 0.0 0.0 0.00 0.01 0.01 91 1008.8
20260510043410 56 103 0.0 0.0 0.00 0.01 0.01 89 1009.0
20260510042908 56 94 0.0 0.9 0.07 0.01 0.01 88 1008.9
20260510042404 57 110 0.0 0.0 0.07 0.01 0.01 90 1009.4
20260510041900 57 6 1.7 2.6 0.00 0.00 0.00 88 1009.2
20260510041357 57 44 0.9 1.7 0.00 0.00 0.00 88 1009.3
20260510040855 57 52 0.9 0.9 0.00 0.00 0.00 90 1008.6
20260510040352 56 92 0.0 0.0 0.00 0.00 0.00 91 1008.5
20260510035847 55 100 0.0 0.0 0.00 0.08 0.08 93 1008.4
20260510035343 55 97 0.0 0.0 0.00 0.08 0.08 94 1008.3
20260510034839 55 97 0.0 0.0 0.00 0.08 0.08 94 1008.4
20260510034337 55 106 0.0 0.0 0.00 0.08 0.08 95 1008.3
20260510033833 55 106 0.0 0.0 0.00 0.08 0.08 95 1008.1
20260510033330 55 106 0.0 0.0 0.00 0.08 0.08 95 1008.1
20260510032827 55 96 0.0 0.0 0.00 0.08 0.08 95 1008.2
20260510032323 55 88 0.0 0.0 0.00 0.08 0.08 95 1008.3
20260510031819 55 94 0.0 0.0 0.00 0.08 0.08 96 1008.0
20260510031314 55 102 0.0 0.0 0.00 0.08 0.08 96 1008.2
20260510030809 55 102 0.0 0.0 0.00 0.08 0.08 95 1008.2
20260510030306 55 102 0.0 0.0 0.00 0.08 0.08 95 1008.1
20260510025803 55 92 0.0 0.0 0.00 0.08 0.08 95 1008.1
20260510025300 55 99 0.0 0.0 0.00 0.08 0.08 95 1008.1
20260510024757 56 100 0.0 0.0 0.00 0.08 0.08 94 1008.0
20260510024254 56 97 0.0 0.0 0.00 0.08 0.08 94 1008.2
20260510023750 56 97 0.0 0.0 0.00 0.08 0.08 93 1007.9
20260510023247 56 106 0.0 0.0 0.00 0.08 0.08 93 1007.9
20260510022743 57 96 0.0 0.0 0.00 0.08 0.08 93 1007.9
20260510022243 57 96 0.0 0.0 0.00 0.08 0.08 93 1007.8
20260510021742 57 99 0.0 0.0 0.00 0.08 0.08 93 1007.7
20260510021241 57 90 0.0 0.0 0.00 0.08 0.08 93 1007.6
20260510020737 57 104 0.0 0.0 0.00 0.08 0.08 91 1007.9
20260510020237 57 90 0.0 0.0 0.00 0.08 0.08 91 1007.7
20260510015733 58 103 0.0 0.0 0.00 0.08 0.08 89 1007.7
20260510015229 58 108 0.0 0.0 0.00 0.08 0.08 88 1007.4
20260510014724 58 126 0.9 0.9 0.00 0.08 0.08 90 1007.7
20260510014222 58 79 0.0 0.9 0.00 0.08 0.08 90 1007.5
20260510013717 59 87 0.0 0.0 0.00 0.08 0.08 89 1007.1
20260510013214 60 60 0.9 0.9 0.05 0.08 0.08 86 1007.1
20260510012713 60 109 0.0 0.0 0.05 0.08 0.08 82 1006.9
20260510012204 61 51 0.9 0.9 0.00 0.07 0.07 80 1007.2
20260510011658 62 112 0.0 0.9 0.00 0.07 0.07 75 1007.2
20260510011154 62 110 0.0 0.0 0.00 0.07 0.07 72 1007.1
20260510010651 63 89 0.0 0.0 0.00 0.07 0.07 71 1006.9
20260510010147 63 124 0.9 0.9 0.00 0.07 0.07 70 1007.1
20260510005643 64 352 0.9 2.6 0.00 0.07 0.07 67 1006.9
20260510005141 65 90 0.0 0.9 0.00 0.07 0.07 64 1006.6
20260510004639 66 26 1.7 1.7 0.00 0.07 0.07 63 1006.7
20260510004137 66 105 0.0 0.9 0.00 0.07 0.07 59 1006.3
20260510003634 66 151 1.7 1.7 0.00 0.07 0.07 59 1006.3
20260510003130 66 138 0.9 1.7 0.00 0.07 0.07 61 1006.0
20260510002629 66 341 0.9 0.9 0.00 0.07 0.07 60 1006.1
20260510002127 66 204 0.9 1.7 0.00 0.07 0.07 61 1006.0
20260510001623 66 112 0.9 0.9 0.00 0.07 0.07 61 1006.0
20260510001123 66 234 1.7 1.7 0.00 0.07 0.07 61 1006.1
20260510000622 66 196 0.0 0.9 0.00 0.07 0.07 60 1005.9
20260510000120 67 159 0.9 1.7 0.00 0.07 0.07 61 1005.8
20260509235616 66 269 1.7 2.6 0.00 0.07 0.07 60 1006.1
20260509235113 67 269 1.7 1.7 0.00 0.07 0.07 60 1005.9
20260509234609 67 233 0.9 1.7 0.00 0.07 0.07 62 1005.9
20260509234107 67 211 1.7 1.7 0.00 0.07 0.07 60 1005.7
20260509233604 67 190 1.7 1.7 0.00 0.07 0.07 62 1005.8
20260509233101 67 206 1.7 1.7 0.00 0.07 0.07 61 1005.9
20260509232557 68 134 0.9 0.9 0.00 0.07 0.07 60 1005.7
20260509232055 67 141 1.7 1.7 0.00 0.07 0.07 60 1005.7
20260509231551 68 103 1.7 1.7 0.00 0.07 0.07 58 1005.6
20260509231049 68 216 1.7 1.7 0.00 0.07 0.07 58 1005.8
20260509230545 68 342 1.7 1.7 0.00 0.07 0.07 59 1005.9
20260509230043 68 232 1.7 1.7 0.00 0.07 0.07 59 1005.9
20260509225538 68 331 1.7 1.7 0.00 0.07 0.07 56 1005.8
20260509225034 68 103 1.7 2.6 0.00 0.07 0.07 56 1005.6
20260509224529 68 153 1.7 2.6 0.00 0.07 0.07 54 1006.0
20260509224026 68 266 0.9 1.7 0.00 0.07 0.07 56 1005.6
20260509223523 68 65 1.7 5.2 0.00 0.07 0.07 55 1005.6
20260509223021 68 199 1.7 1.7 0.00 0.07 0.07 56 1005.6
20260509222517 68 166 0.9 1.7 0.00 0.07 0.07 59 1005.6
20260509222012 68 170 1.7 2.6 0.00 0.07 0.07 57 1005.7
20260509221509 68 197 1.7 2.6 0.00 0.07 0.07 56 1005.4
20260509221005 68 244 1.7 2.6 0.00 0.07 0.07 57 1005.6
20260509220501 68 288 2.6 2.6 0.00 0.07 0.07 56 1005.8
20260509215957 68 194 1.7 1.7 0.00 0.07 0.07 55 1005.6
20260509215453 69 69 1.7 2.6 0.00 0.07 0.07 55 1005.6
20260509214950 69 104 3.5 6.1 0.00 0.07 0.07 57 1005.6
20260509214448 68 177 2.6 3.5 0.00 0.07 0.07 57 1005.8
20260509213944 68 199 1.7 1.7 0.00 0.07 0.07 59 1005.8
20260509213440 69 326 1.7 1.7 0.00 0.07 0.07 60 1005.9
20260509212937 69 205 1.7 2.6 0.00 0.07 0.07 58 1005.9
20260509212435 69 114 0.9 1.7 0.00 0.07 0.07 63 1005.9
20260509211931 69 245 1.7 2.6 0.00 0.07 0.07 59 1005.7
20260509211426 69 350 1.7 2.6 0.00 0.07 0.07 58 1005.7
20260509210923 69 50 1.7 3.5 0.00 0.07 0.07 56 1005.7
20260509210420 69 235 0.9 0.9 0.00 0.07 0.07 56 1005.9
20260509205915 70 247 1.7 2.6 0.00 0.07 0.07 56 1006.0
20260509205415 70 255 1.7 2.6 0.00 0.07 0.07 56 1005.8
20260509204911 70 322 1.7 1.7 0.00 0.07 0.07 59 1005.9
20260509204408 70 198 1.7 2.6 0.00 0.07 0.07 55 1006.2
20260509203905 70 229 2.6 2.6 0.00 0.07 0.07 54 1006.0